| time (UTC) | temp F | wind direction | speed MPH | gust MPH | rain 1hr in | rain 24hr in | rain mn in | humidity % | barometer mb |
| 20260906082118 | 70 | 94 | 2.0 | 2.0 | 0.00 | 0.00 | 0.00 | 91 | 1019.2 |
| 20260906081613 | 70 | 95 | 3.0 | 3.0 | 0.00 | 0.00 | 0.00 | 90 | 1019.1 |
| 20260906081108 | 70 | 77 | 4.0 | 6.0 | 0.00 | 0.00 | 0.00 | 90 | 1019.2 |
| 20260906080606 | 70 | 66 | 1.0 | 2.0 | 0.00 | 0.00 | 0.00 | 91 | 1019.2 |
| 20260906075600 | 71 | 95 | 6.0 | 7.0 | 0.00 | 0.00 | 0.00 | 90 | 1019.3 |
| 20260906075055 | 71 | 87 | 1.0 | 2.0 | 0.00 | 0.00 | 0.00 | 90 | 1019.3 |
| 20260906074550 | 71 | 56 | 1.0 | 1.0 | 0.00 | 0.00 | 0.00 | 90 | 1019.3 |
| 20260906074049 | 71 | 65 | 1.0 | 4.0 | 0.00 | 0.00 | 0.00 | 90 | 1019.3 |
| 20260906073544 | 71 | 126 | 2.0 | 3.0 | 0.00 | 0.00 | 0.00 | 89 | 1019.2 |
| 20260906073040 | 71 | 83 | 4.0 | 6.0 | 0.00 | 0.00 | 0.00 | 90 | 1019.4 |
| 20260906072534 | 71 | 94 | 4.0 | 4.0 | 0.00 | 0.00 | 0.00 | 89 | 1019.3 |
| 20260906072031 | 71 | 93 | 1.0 | 2.0 | 0.00 | 0.00 | 0.00 | 89 | 1019.5 |
| 20260906071527 | 71 | 85 | 1.0 | 2.0 | 0.00 | 0.00 | 0.00 | 89 | 1019.7 |
| 20260906071022 | 71 | 111 | 2.0 | 3.0 | 0.00 | 0.00 | 0.00 | 89 | 1019.5 |
| 20260906070518 | 71 | 73 | 2.0 | 3.0 | 0.00 | 0.00 | 0.00 | 89 | 1019.9 |
| 20260906070014 | 71 | 79 | 1.0 | 2.0 | 0.00 | 0.00 | 0.00 | 89 | 1020.2 |
| 20260906065513 | 71 | 96 | 0.0 | 1.0 | 0.00 | 0.00 | 0.00 | 89 | 1020.0 |
| 20260906065009 | 71 | 91 | 2.0 | 3.0 | 0.00 | 0.00 | 0.00 | 88 | 1020.1 |
| 20260906064505 | 71 | 77 | 1.0 | 2.0 | 0.00 | 0.00 | 0.00 | 88 | 1020.2 |
| 20260906064000 | 71 | 109 | 1.0 | 3.0 | 0.00 | 0.00 | 0.00 | 88 | 1019.7 |
| 20260906063455 | 72 | 72 | 2.0 | 4.0 | 0.00 | 0.00 | 0.00 | 88 | 1019.7 |
| 20260906062949 | 72 | 98 | 5.0 | 7.0 | 0.00 | 0.00 | 0.00 | 88 | 1020.0 |
| 20260906062444 | 72 | 46 | 2.0 | 3.0 | 0.00 | 0.00 | 0.00 | 88 | 1019.7 |
| 20260906061939 | 72 | 88 | 1.0 | 2.0 | 0.00 | 0.00 | 0.00 | 88 | 1020.0 |
| 20260906061435 | 72 | 73 | 1.0 | 2.0 | 0.00 | 0.00 | 0.00 | 88 | 1019.9 |
| 20260906060929 | 72 | 59 | 1.0 | 1.0 | 0.00 | 0.00 | 0.00 | 88 | 1019.7 |
| 20260906060426 | 72 | 110 | 1.0 | 3.0 | 0.00 | 0.00 | 0.00 | 88 | 1019.6 |
| 20260906055923 | 72 | 72 | 2.0 | 3.0 | 0.00 | 0.00 | 0.00 | 88 | 1019.7 |
| 20260906055418 | 72 | 66 | 1.0 | 2.0 | 0.00 | 0.00 | 0.00 | 88 | 1019.7 |
| 20260906054913 | 72 | 78 | 2.0 | 3.0 | 0.00 | 0.00 | 0.00 | 88 | 1019.9 |
| 20260906054408 | 72 | 74 | 0.0 | 1.0 | 0.00 | 0.00 | 0.00 | 88 | 1019.9 |
| 20260906053904 | 72 | 58 | 3.0 | 4.0 | 0.00 | 0.00 | 0.00 | 87 | 1019.7 |
| 20260906053400 | 72 | 74 | 1.0 | 1.0 | 0.00 | 0.00 | 0.00 | 88 | 1019.7 |
| 20260906052855 | 73 | 119 | 1.0 | 2.0 | 0.00 | 0.00 | 0.00 | 87 | 1019.7 |
| 20260906052352 | 73 | 84 | 3.0 | 3.0 | 0.00 | 0.00 | 0.00 | 86 | 1019.4 |
| 20260906051848 | 73 | 84 | 3.0 | 3.0 | 0.00 | 0.00 | 0.00 | 86 | 1019.6 |
| 20260906051343 | 73 | 74 | 2.0 | 3.0 | 0.00 | 0.00 | 0.00 | 86 | 1019.3 |
| 20260906050839 | 73 | 114 | 3.0 | 3.0 | 0.00 | 0.00 | 0.00 | 86 | 1019.3 |
| 20260906050333 | 73 | 60 | 0.0 | 1.0 | 0.00 | 0.00 | 0.00 | 85 | 1019.3 |
| 20260906045832 | 73 | 77 | 0.0 | 1.0 | 0.00 | 0.00 | 0.00 | 85 | 1019.7 |
| 20260906045326 | 73 | 54 | 0.0 | 2.0 | 0.00 | 0.00 | 0.00 | 85 | 1019.7 |
| 20260906044823 | 73 | 56 | 1.0 | 2.0 | 0.00 | 0.00 | 0.00 | 85 | 1019.6 |
| 20260906044322 | 73 | 64 | 1.0 | 1.0 | 0.00 | 0.00 | 0.00 | 85 | 1019.5 |
| 20260906043818 | 73 | 93 | 0.0 | 0.0 | 0.00 | 0.00 | 0.00 | 85 | 1019.5 |
| 20260906043314 | 73 | 102 | 2.0 | 2.0 | 0.00 | 0.00 | 0.00 | 86 | 1019.4 |
| 20260906042809 | 73 | 72 | 0.0 | 0.0 | 0.00 | 0.00 | 0.00 | 86 | 1019.9 |
| 20260906042308 | 73 | 43 | 1.0 | 2.0 | 0.00 | 0.00 | 0.00 | 86 | 1019.5 |
| 20260906041804 | 74 | 52 | 1.0 | 2.0 | 0.00 | 0.00 | 0.00 | 85 | 1019.7 |
| 20260906041258 | 74 | 64 | 0.0 | 0.0 | 0.00 | 0.00 | 0.00 | 84 | 1019.6 |
| 20260906040754 | 74 | 88 | 0.0 | 0.0 | 0.00 | 0.00 | 0.00 | 85 | 1019.6 |
| 20260906040249 | 74 | 345 | 3.0 | 3.0 | 0.00 | 0.00 | 0.00 | 84 | 1019.7 |
| 20260906035744 | 74 | 92 | 1.0 | 1.0 | 0.00 | 0.00 | 0.00 | 84 | 1019.0 |
| 20260906035240 | 73 | 94 | 0.0 | 0.0 | 0.00 | 0.00 | 0.00 | 86 | 1019.3 |
| 20260906034740 | 73 | 70 | 1.0 | 1.0 | 0.00 | 0.00 | 0.00 | 86 | 1018.9 |
| 20260906034235 | 73 | 106 | 4.0 | 4.0 | 0.00 | 0.00 | 0.00 | 86 | 1018.7 |
| 20260906033730 | 73 | 95 | 1.0 | 1.0 | 0.00 | 0.00 | 0.00 | 86 | 1019.1 |
| 20260906033230 | 74 | 112 | 3.0 | 3.0 | 0.00 | 0.00 | 0.00 | 85 | 1019.3 |
| 20260906032727 | 73 | 68 | 0.0 | 0.0 | 0.00 | 0.00 | 0.00 | 86 | 1019.1 |
| 20260906032227 | 74 | 16 | 1.0 | 1.0 | 0.00 | 0.00 | 0.00 | 86 | 1019.3 |
| 20260906031722 | 74 | 80 | 0.0 | 0.0 | 0.00 | 0.00 | 0.00 | 85 | 1019.1 |
| 20260906031218 | 74 | 90 | 0.0 | 0.0 | 0.00 | 0.00 | 0.00 | 85 | 1019.1 |
| 20260906030717 | 74 | 17 | 1.0 | 2.0 | 0.00 | 0.00 | 0.00 | 86 | 1019.1 |
| 20260906030213 | 74 | 350 | 2.0 | 2.0 | 0.00 | 0.00 | 0.00 | 86 | 1019.1 |
| 20260906025711 | 74 | 63 | 1.0 | 1.0 | 0.00 | 0.00 | 0.00 | 86 | 1018.8 |
| 20260906025206 | 74 | 73 | 0.0 | 0.0 | 0.00 | 0.00 | 0.00 | 86 | 1018.8 |
| 20260906024706 | 74 | 70 | 0.0 | 1.0 | 0.00 | 0.00 | 0.00 | 85 | 1018.8 |
| 20260906024205 | 74 | 81 | 0.0 | 0.0 | 0.00 | 0.00 | 0.00 | 85 | 1018.8 |
| 20260906023701 | 74 | 46 | 1.0 | 1.0 | 0.00 | 0.00 | 0.00 | 85 | 1018.5 |
| 20260906023200 | 74 | 81 | 0.0 | 0.0 | 0.00 | 0.00 | 0.00 | 85 | 1018.5 |
| 20260906022655 | 74 | 76 | 1.0 | 1.0 | 0.00 | 0.00 | 0.00 | 85 | 1018.7 |
| 20260906022151 | 74 | 60 | 0.0 | 1.0 | 0.00 | 0.00 | 0.00 | 85 | 1018.5 |
| 20260906021647 | 74 | 100 | 0.0 | 0.0 | 0.00 | 0.00 | 0.00 | 85 | 1018.3 |
| 20260906021145 | 75 | 78 | 0.0 | 0.0 | 0.00 | 0.00 | 0.00 | 84 | 1018.3 |
| 20260906020640 | 75 | 81 | 0.0 | 0.0 | 0.00 | 0.00 | 0.00 | 84 | 1018.5 |
| 20260906020136 | 75 | 23 | 0.0 | 1.0 | 0.00 | 0.00 | 0.00 | 84 | 1018.4 |
| 20260906015630 | 75 | 73 | 0.0 | 0.0 | 0.00 | 0.00 | 0.00 | 83 | 1018.2 |
| 20260906015129 | 75 | 84 | 1.0 | 1.0 | 0.00 | 0.00 | 0.00 | 83 | 1018.3 |
| 20260906014628 | 75 | 74 | 0.0 | 0.0 | 0.00 | 0.00 | 0.00 | 83 | 1018.0 |
| 20260906014125 | 75 | 67 | 0.0 | 0.0 | 0.00 | 0.00 | 0.00 | 83 | 1018.0 |
| 20260906013620 | 75 | 87 | 0.0 | 1.0 | 0.00 | 0.00 | 0.00 | 82 | 1017.8 |
| 20260906013115 | 76 | 52 | 2.0 | 2.0 | 0.00 | 0.00 | 0.00 | 82 | 1017.9 |
| 20260906012610 | 76 | 92 | 2.0 | 2.0 | 0.00 | 0.00 | 0.00 | 81 | 1017.7 |
| 20260906012110 | 76 | 81 | 0.0 | 0.0 | 0.00 | 0.00 | 0.00 | 82 | 1017.6 |
| 20260906011607 | 76 | 72 | 2.0 | 3.0 | 0.00 | 0.00 | 0.00 | 81 | 1017.5 |
| 20260906011106 | 76 | 124 | 2.0 | 2.0 | 0.00 | 0.00 | 0.00 | 81 | 1017.4 |
| 20260906010602 | 77 | 90 | 0.0 | 1.0 | 0.00 | 0.00 | 0.00 | 80 | 1017.6 |
| 20260906010058 | 77 | 110 | 3.0 | 4.0 | 0.00 | 0.00 | 0.00 | 79 | 1017.4 |
| 20260906005557 | 77 | 60 | 0.0 | 0.0 | 0.00 | 0.00 | 0.00 | 79 | 1017.5 |
| 20260906005056 | 77 | 101 | 6.0 | 7.0 | 0.00 | 0.00 | 0.00 | 79 | 1017.6 |
| 20260906004556 | 77 | 112 | 4.0 | 6.0 | 0.00 | 0.00 | 0.00 | 79 | 1017.4 |
| 20260906004051 | 77 | 107 | 4.0 | 6.0 | 0.00 | 0.00 | 0.00 | 79 | 1017.4 |
| 20260906003546 | 77 | 83 | 2.0 | 3.0 | 0.00 | 0.00 | 0.00 | 79 | 1017.4 |
| 20260906003042 | 78 | 101 | 3.0 | 4.0 | 0.00 | 0.00 | 0.00 | 79 | 1017.3 |
| 20260906002536 | 78 | 92 | 5.0 | 7.0 | 0.00 | 0.00 | 0.00 | 79 | 1017.4 |
| 20260906002031 | 78 | 80 | 6.0 | 8.0 | 0.00 | 0.00 | 0.00 | 79 | 1017.4 |
| 20260906001526 | 78 | 45 | 5.0 | 7.0 | 0.00 | 0.00 | 0.00 | 78 | 1017.4 |
| 20260906001022 | 79 | 73 | 2.0 | 4.0 | 0.00 | 0.00 | 0.00 | 78 | 1017.4 |
| 20260906000518 | 79 | 89 | 2.0 | 6.0 | 0.00 | 0.00 | 0.00 | 77 | 1017.1 |
| 20260906000018 | 80 | 76 | 3.0 | 4.0 | 0.00 | 0.00 | 0.00 | 77 | 1017.2 |
| 20260905235511 | 80 | 56 | 2.0 | 3.0 | 0.00 | 0.00 | 0.00 | 76 | 1017.3 |
| 20260905235006 | 80 | 96 | 3.0 | 4.0 | 0.00 | 0.00 | 0.00 | 76 | 1017.3 |
| 20260905234502 | 80 | 105 | 2.0 | 3.0 | 0.00 | 0.00 | 0.00 | 75 | 1017.3 |
| 20260905233956 | 80 | 103 | 5.0 | 6.0 | 0.00 | 0.00 | 0.00 | 75 | 1017.2 |
| 20260905233452 | 81 | 77 | 5.0 | 6.0 | 0.00 | 0.00 | 0.00 | 74 | 1017.2 |
| 20260905232950 | 81 | 107 | 3.0 | 4.0 | 0.00 | 0.00 | 0.00 | 74 | 1017.3 |
| 20260905232447 | 81 | 68 | 1.0 | 1.0 | 0.00 | 0.00 | 0.00 | 75 | 1017.3 |
| 20260905231942 | 81 | 74 | 5.0 | 6.0 | 0.00 | 0.00 | 0.00 | 74 | 1016.9 |
| 20260905231438 | 81 | 78 | 3.0 | 6.0 | 0.00 | 0.00 | 0.00 | 74 | 1016.8 |
| 20260905230934 | 81 | 83 | 6.0 | 8.0 | 0.00 | 0.00 | 0.00 | 74 | 1017.0 |
| 20260905230432 | 82 | 99 | 6.0 | 10.0 | 0.00 | 0.00 | 0.00 | 74 | 1017.0 |
| 20260905225931 | 81 | 88 | 3.0 | 4.0 | 0.00 | 0.00 | 0.00 | 74 | 1017.0 |
| 20260905225426 | 81 | 51 | 3.0 | 4.0 | 0.00 | 0.00 | 0.00 | 74 | 1016.8 |
| 20260905224921 | 82 | 51 | 3.0 | 4.0 | 0.00 | 0.00 | 0.00 | 74 | 1016.9 |
| 20260905224417 | 82 | 93 | 5.0 | 9.0 | 0.00 | 0.00 | 0.00 | 74 | 1017.0 |
| 20260905223911 | 82 | 111 | 9.0 | 9.0 | 0.00 | 0.00 | 0.00 | 73 | 1017.0 |
| 20260905223409 | 82 | 67 | 1.0 | 1.0 | 0.00 | 0.00 | 0.00 | 74 | 1016.9 |
| 20260905222908 | 81 | 78 | 2.0 | 4.0 | 0.00 | 0.00 | 0.00 | 75 | 1017.1 |
| 20260905222408 | 80 | 61 | 2.0 | 2.0 | 0.00 | 0.00 | 0.00 | 76 | 1017.0 |
| 20260905221904 | 80 | 37 | 4.0 | 8.0 | 0.00 | 0.00 | 0.00 | 76 | 1017.1 |
| 20260905221401 | 80 | 95 | 3.0 | 3.0 | 0.00 | 0.00 | 0.00 | 77 | 1017.0 |
| 20260905220856 | 80 | 78 | 1.0 | 2.0 | 0.00 | 0.00 | 0.00 | 76 | 1017.1 |
| 20260905220352 | 81 | 114 | 3.0 | 6.0 | 0.00 | 0.00 | 0.00 | 75 | 1017.1 |
| 20260905215851 | 81 | 60 | 5.0 | 6.0 | 0.00 | 0.00 | 0.00 | 74 | 1017.1 |
| 20260905215347 | 81 | 355 | 6.0 | 8.0 | 0.00 | 0.00 | 0.00 | 74 | 1017.1 |
| 20260905214843 | 81 | 10 | 4.0 | 6.0 | 0.00 | 0.00 | 0.00 | 74 | 1017.3 |
| 20260905214338 | 80 | 23 | 3.0 | 4.0 | 0.00 | 0.00 | 0.00 | 75 | 1017.2 |
| 20260905213827 | 80 | 71 | 3.0 | 6.0 | 0.00 | 0.00 | 0.00 | 76 | 1017.2 |
| 20260905213323 | 80 | 66 | 4.0 | 6.0 | 0.00 | 0.00 | 0.00 | 76 | 1017.5 |
| 20260905212818 | 81 | 68 | 2.0 | 4.0 | 0.00 | 0.00 | 0.00 | 75 | 1017.5 |
| 20260905212313 | 81 | 71 | 2.0 | 2.0 | 0.00 | 0.00 | 0.00 | 73 | 1017.5 |
| 20260905211813 | 81 | 58 | 3.0 | 4.0 | 0.00 | 0.00 | 0.00 | 73 | 1017.4 |
| 20260905211308 | 81 | 46 | 3.0 | 4.0 | 0.00 | 0.00 | 0.00 | 74 | 1017.5 |
| 20260905210804 | 80 | 74 | 2.0 | 3.0 | 0.00 | 0.00 | 0.00 | 76 | 1017.6 |
| 20260905210304 | 80 | 67 | 1.0 | 3.0 | 0.00 | 0.00 | 0.00 | 77 | 1017.5 |
| 20260905205802 | 80 | 78 | 2.0 | 4.0 | 0.00 | 0.00 | 0.00 | 76 | 1017.5 |
| 20260905205257 | 80 | 79 | 2.0 | 2.0 | 0.00 | 0.00 | 0.00 | 77 | 1017.5 |
| 20260905204756 | 82 | 89 | 4.0 | 6.0 | 0.00 | 0.00 | 0.00 | 76 | 1017.7 |
| 20260905204253 | 81 | 53 | 2.0 | 3.0 | 0.00 | 0.00 | 0.00 | 74 | 1017.7 |
| 20260905203752 | 80 | 62 | 1.0 | 2.0 | 0.00 | 0.00 | 0.00 | 75 | 1017.7 |
| 20260905203247 | 81 | 123 | 2.0 | 4.0 | 0.00 | 0.00 | 0.00 | 77 | 1017.8 |
| 20260905202743 | 81 | 81 | 1.0 | 2.0 | 0.00 | 0.00 | 0.00 | 77 | 1017.8 |
| 20260905202238 | 81 | 66 | 0.0 | 1.0 | 0.00 | 0.00 | 0.00 | 78 | 1018.0 |
| 20260905201733 | 81 | 63 | 0.0 | 1.0 | 0.00 | 0.00 | 0.00 | 77 | 1017.6 |
| 20260905201228 | 81 | 40 | 3.0 | 3.0 | 0.00 | 0.00 | 0.00 | 78 | 1017.6 |
| 20260905200723 | 81 | 94 | 4.0 | 4.0 | 0.00 | 0.00 | 0.00 | 77 | 1017.6 |
| 20260905200219 | 81 | 62 | 2.0 | 4.0 | 0.00 | 0.00 | 0.00 | 78 | 1017.5 |
| 20260905195718 | 81 | 82 | 0.0 | 1.0 | 0.00 | 0.00 | 0.00 | 78 | 1017.4 |
| 20260905195218 | 81 | 23 | 3.0 | 3.0 | 0.00 | 0.00 | 0.00 | 77 | 1017.7 |
| 20260905194713 | 82 | 79 | 3.0 | 6.0 | 0.00 | 0.00 | 0.00 | 77 | 1018.0 |
| 20260905194213 | 82 | 39 | 3.0 | 4.0 | 0.00 | 0.00 | 0.00 | 78 | 1018.0 |
| 20260905193707 | 82 | 60 | 0.0 | 1.0 | 0.00 | 0.00 | 0.00 | 77 | 1018.1 |
| 20260905193202 | 82 | 79 | 2.0 | 4.0 | 0.00 | 0.00 | 0.00 | 77 | 1018.1 |
| 20260905192658 | 82 | 21 | 4.0 | 6.0 | 0.00 | 0.00 | 0.00 | 77 | 1018.1 |
| 20260905192154 | 82 | 84 | 3.0 | 6.0 | 0.00 | 0.00 | 0.00 | 77 | 1017.9 |
| 20260905191654 | 82 | 88 | 5.0 | 7.0 | 0.00 | 0.00 | 0.00 | 77 | 1017.9 |
| 20260905191151 | 83 | 56 | 2.0 | 3.0 | 0.00 | 0.00 | 0.00 | 75 | 1018.1 |
| 20260905190650 | 84 | 66 | 1.0 | 3.0 | 0.00 | 0.00 | 0.00 | 75 | 1017.9 |
| 20260905190149 | 84 | 34 | 2.0 | 3.0 | 0.00 | 0.00 | 0.00 | 75 | 1018.1 |
| 20260905185648 | 83 | 340 | 4.0 | 7.0 | 0.00 | 0.00 | 0.00 | 74 | 1018.1 |
| 20260905185143 | 84 | 63 | 2.0 | 3.0 | 0.00 | 0.00 | 0.00 | 75 | 1017.9 |
| 20260905184643 | 84 | 101 | 3.0 | 4.0 | 0.00 | 0.00 | 0.00 | 75 | 1017.9 |
| 20260905184142 | 83 | 48 | 2.0 | 3.0 | 0.00 | 0.00 | 0.00 | 75 | 1018.0 |
| 20260905183641 | 84 | 304 | 3.0 | 4.0 | 0.00 | 0.00 | 0.00 | 74 | 1017.9 |
| 20260905183137 | 84 | 89 | 8.0 | 10.0 | 0.00 | 0.00 | 0.00 | 75 | 1017.9 |
| 20260905182636 | 84 | 49 | 1.0 | 3.0 | 0.00 | 0.00 | 0.00 | 74 | 1017.8 |
| 20260905182136 | 84 | 39 | 4.0 | 4.0 | 0.00 | 0.00 | 0.00 | 75 | 1018.0 |
| 20260905181631 | 85 | 22 | 3.0 | 3.0 | 0.00 | 0.00 | 0.00 | 74 | 1018.0 |
| 20260905181130 | 84 | 14 | 2.0 | 3.0 | 0.00 | 0.00 | 0.00 | 73 | 1018.0 |
| 20260905180625 | 84 | 42 | 2.0 | 3.0 | 0.00 | 0.00 | 0.00 | 75 | 1018.0 |
| 20260905180121 | 86 | 330 | 6.0 | 8.0 | 0.00 | 0.00 | 0.00 | 72 | 1017.9 |
| 20260905175620 | 84 | 78 | 4.0 | 7.0 | 0.00 | 0.00 | 0.00 | 75 | 1018.1 |
| 20260905175115 | 84 | 77 | 6.0 | 7.0 | 0.00 | 0.00 | 0.00 | 74 | 1017.8 |
| 20260905174611 | 83 | 64 | 2.0 | 3.0 | 0.00 | 0.00 | 0.00 | 77 | 1017.9 |
| 20260905174106 | 83 | 351 | 6.0 | 8.0 | 0.00 | 0.00 | 0.00 | 77 | 1017.8 |
| 20260905173603 | 84 | 85 | 2.0 | 2.0 | 0.00 | 0.00 | 0.00 | 75 | 1018.1 |
| 20260905173058 | 82 | 20 | 4.0 | 4.0 | 0.00 | 0.00 | 0.00 | 78 | 1018.0 |
| 20260905172556 | 83 | 332 | 2.0 | 3.0 | 0.00 | 0.00 | 0.00 | 77 | 1018.0 |
| 20260905172052 | 84 | 84 | 3.0 | 4.0 | 0.00 | 0.00 | 0.00 | 76 | 1018.0 |
| 20260905171548 | 83 | 81 | 2.0 | 3.0 | 0.00 | 0.00 | 0.00 | 77 | 1018.1 |
| 20260905171044 | 83 | 349 | 1.0 | 3.0 | 0.00 | 0.00 | 0.00 | 76 | 1018.1 |
| 20260905170540 | 82 | 48 | 2.0 | 2.0 | 0.00 | 0.00 | 0.00 | 77 | 1018.1 |
| 20260905170035 | 83 | 85 | 6.0 | 9.0 | 0.00 | 0.00 | 0.00 | 77 | 1018.0 |
| 20260905165530 | 83 | 52 | 1.0 | 2.0 | 0.00 | 0.00 | 0.00 | 77 | 1018.1 |
| 20260905165020 | 83 | 71 | 1.0 | 3.0 | 0.00 | 0.00 | 0.00 | 77 | 1018.2 |
| 20260905164520 | 83 | 70 | 0.0 | 0.0 | 0.00 | 0.00 | 0.00 | 76 | 1018.2 |
| 20260905164014 | 82 | 100 | 4.0 | 6.0 | 0.00 | 0.00 | 0.00 | 77 | 1018.2 |
| 20260905163510 | 83 | 68 | 0.0 | 1.0 | 0.00 | 0.00 | 0.00 | 77 | 1018.4 |
| 20260905163006 | 83 | 28 | 4.0 | 4.0 | 0.00 | 0.00 | 0.00 | 77 | 1018.3 |
| 20260905162501 | 82 | 27 | 2.0 | 3.0 | 0.00 | 0.00 | 0.00 | 77 | 1018.3 |
| 20260905161956 | 82 | 15 | 4.0 | 6.0 | 0.00 | 0.00 | 0.00 | 77 | 1018.1 |
| 20260905161456 | 82 | 90 | 4.0 | 6.0 | 0.00 | 0.00 | 0.00 | 77 | 1018.0 |
| 20260905160954 | 82 | 60 | 3.0 | 6.0 | 0.00 | 0.00 | 0.00 | 78 | 1018.1 |
| 20260905160448 | 82 | 92 | 4.0 | 6.0 | 0.00 | 0.00 | 0.00 | 77 | 1018.2 |
| 20260905155947 | 82 | 65 | 2.0 | 4.0 | 0.00 | 0.00 | 0.00 | 77 | 1018.2 |
| 20260905155442 | 82 | 94 | 4.0 | 6.0 | 0.00 | 0.00 | 0.00 | 78 | 1018.2 |
| 20260905154941 | 82 | 70 | 2.0 | 3.0 | 0.00 | 0.00 | 0.00 | 77 | 1018.0 |
| 20260905154436 | 82 | 87 | 2.0 | 3.0 | 0.00 | 0.00 | 0.00 | 78 | 1018.1 |
| 20260905153932 | 82 | 45 | 3.0 | 3.0 | 0.00 | 0.00 | 0.00 | 78 | 1018.1 |
| 20260905153428 | 82 | 81 | 0.0 | 1.0 | 0.00 | 0.00 | 0.00 | 77 | 1018.1 |
| 20260905152927 | 83 | 105 | 4.0 | 4.0 | 0.00 | 0.00 | 0.00 | 77 | 1018.1 |
| 20260905152427 | 83 | 72 | 0.0 | 1.0 | 0.00 | 0.00 | 0.00 | 76 | 1017.9 |
| 20260905151922 | 82 | 120 | 1.0 | 3.0 | 0.00 | 0.00 | 0.00 | 78 | 1017.9 |
| 20260905151418 | 82 | 60 | 1.0 | 3.0 | 0.00 | 0.00 | 0.00 | 78 | 1018.0 |
| 20260905150918 | 82 | 128 | 7.0 | 8.0 | 0.00 | 0.00 | 0.00 | 78 | 1017.8 |
| 20260905150418 | 82 | 47 | 0.0 | 1.0 | 0.00 | 0.00 | 0.00 | 77 | 1017.9 |
| 20260905145915 | 82 | 55 | 3.0 | 6.0 | 0.00 | 0.00 | 0.00 | 78 | 1017.7 |
| 20260905145410 | 82 | 70 | 2.0 | 2.0 | 0.00 | 0.00 | 0.00 | 76 | 1017.6 |
| 20260905144909 | 81 | 119 | 4.0 | 4.0 | 0.00 | 0.00 | 0.00 | 77 | 1017.4 |
| 20260905144405 | 82 | 79 | 1.0 | 2.0 | 0.00 | 0.00 | 0.00 | 76 | 1017.4 |
| 20260905143903 | 82 | 75 | 1.0 | 2.0 | 0.00 | 0.00 | 0.00 | 76 | 1017.4 |
| 20260905143358 | 82 | 33 | 3.0 | 4.0 | 0.00 | 0.00 | 0.00 | 76 | 1017.4 |
| 20260905142857 | 82 | 41 | 2.0 | 2.0 | 0.00 | 0.00 | 0.00 | 76 | 1017.3 |
| 20260905142355 | 81 | 66 | 2.0 | 3.0 | 0.00 | 0.00 | 0.00 | 77 | 1017.4 |
| 20260905141852 | 81 | 61 | 2.0 | 2.0 | 0.00 | 0.00 | 0.00 | 77 | 1017.3 |
| 20260905141347 | 81 | 6 | 3.0 | 3.0 | 0.00 | 0.00 | 0.00 | 77 | 1017.2 |
| 20260905140843 | 80 | 88 | 0.0 | 1.0 | 0.00 | 0.00 | 0.00 | 78 | 1017.3 |
| 20260905140343 | 78 | 79 | 0.0 | 0.0 | 0.00 | 0.00 | 0.00 | 80 | 1017.4 |
| 20260905135842 | 79 | 72 | 0.0 | 1.0 | 0.00 | 0.00 | 0.00 | 80 | 1017.2 |
| 20260905135338 | 78 | 87 | 0.0 | 1.0 | 0.00 | 0.00 | 0.00 | 81 | 1017.2 |
| 20260905134833 | 78 | 81 | 1.0 | 1.0 | 0.00 | 0.00 | 0.00 | 81 | 1017.2 |
| 20260905134326 | 78 | 55 | 1.0 | 2.0 | 0.00 | 0.00 | 0.00 | 82 | 1017.0 |
| 20260905133820 | 77 | 63 | 0.0 | 0.0 | 0.00 | 0.00 | 0.00 | 82 | 1017.0 |
| 20260905133316 | 77 | 40 | 1.0 | 1.0 | 0.00 | 0.00 | 0.00 | 82 | 1017.0 |
| 20260905132815 | 77 | 83 | 2.0 | 3.0 | 0.00 | 0.00 | 0.00 | 83 | 1016.9 |
| 20260905132311 | 77 | 44 | 2.0 | 3.0 | 0.00 | 0.00 | 0.00 | 82 | 1017.0 |
| 20260905131805 | 76 | 70 | 1.0 | 1.0 | 0.00 | 0.00 | 0.00 | 83 | 1016.9 |
| 20260905131301 | 75 | 58 | 3.0 | 3.0 | 0.00 | 0.00 | 0.00 | 84 | 1016.7 |
| 20260905130801 | 76 | 39 | 2.0 | 2.0 | 0.00 | 0.00 | 0.00 | 83 | 1016.6 |
| 20260905130259 | 76 | 106 | 0.0 | 0.0 | 0.00 | 0.00 | 0.00 | 82 | 1016.4 |
| 20260905125755 | 76 | 90 | 0.0 | 0.0 | 0.00 | 0.00 | 0.00 | 81 | 1016.5 |
| 20260905125250 | 75 | 78 | 0.0 | 0.0 | 0.00 | 0.00 | 0.00 | 83 | 1016.4 |
| 20260905124747 | 75 | 73 | 0.0 | 0.0 | 0.00 | 0.00 | 0.00 | 84 | 1016.3 |
| 20260905124242 | 74 | 112 | 0.0 | 0.0 | 0.00 | 0.00 | 0.00 | 84 | 1016.3 |
| 20260905123737 | 74 | 74 | 0.0 | 0.0 | 0.00 | 0.00 | 0.00 | 85 | 1016.4 |
| 20260905123234 | 73 | 79 | 0.0 | 0.0 | 0.00 | 0.00 | 0.00 | 85 | 1016.4 |
| 20260905122735 | 73 | 82 | 0.0 | 1.0 | 0.00 | 0.00 | 0.00 | 86 | 1016.4 |
| 20260905122234 | 73 | 85 | 0.0 | 0.0 | 0.00 | 0.00 | 0.00 | 87 | 1016.4 |
| 20260905121729 | 72 | 80 | 0.0 | 0.0 | 0.00 | 0.00 | 0.00 | 88 | 1016.3 |
| 20260905121226 | 71 | 72 | 0.0 | 0.0 | 0.00 | 0.00 | 0.00 | 90 | 1016.3 |
| 20260905120724 | 71 | 67 | 0.0 | 0.0 | 0.00 | 0.00 | 0.00 | 91 | 1016.4 |
| 20260905120219 | 71 | 49 | 1.0 | 1.0 | 0.00 | 0.00 | 0.00 | 91 | 1016.2 |
| 20260905115720 | 70 | 65 | 0.0 | 0.0 | 0.00 | 0.00 | 0.00 | 92 | 1016.0 |
| 20260905115219 | 70 | 75 | 1.0 | 1.0 | 0.00 | 0.00 | 0.00 | 92 | 1015.9 |
| 20260905114714 | 70 | 81 | 0.0 | 0.0 | 0.00 | 0.00 | 0.00 | 92 | 1016.0 |
| 20260905114213 | 70 | 50 | 0.0 | 0.0 | 0.00 | 0.00 | 0.00 | 92 | 1015.9 |
| 20260905113712 | 70 | 57 | 0.0 | 0.0 | 0.00 | 0.00 | 0.00 | 92 | 1016.0 |
| 20260905113208 | 70 | 61 | 0.0 | 0.0 | 0.00 | 0.00 | 0.00 | 92 | 1016.0 |
| 20260905112708 | 71 | 25 | 1.0 | 1.0 | 0.00 | 0.00 | 0.00 | 92 | 1016.3 |
| 20260905112203 | 71 | 59 | 0.0 | 0.0 | 0.00 | 0.00 | 0.00 | 92 | 1015.9 |
| 20260905111657 | 71 | 50 | 0.0 | 0.0 | 0.00 | 0.00 | 0.00 | 92 | 1015.9 |
| 20260905111157 | 71 | 47 | 0.0 | 0.0 | 0.00 | 0.00 | 0.00 | 92 | 1015.7 |
| 20260905110656 | 71 | 59 | 0.0 | 0.0 | 0.00 | 0.00 | 0.00 | 92 | 1015.7 |
| 20260905110151 | 70 | 61 | 0.0 | 0.0 | 0.00 | 0.00 | 0.00 | 93 | 1015.8 |
| 20260905105646 | 70 | 62 | 0.0 | 1.0 | 0.00 | 0.00 | 0.00 | 93 | 1015.7 |
| 20260905105145 | 70 | 65 | 0.0 | 1.0 | 0.00 | 0.00 | 0.00 | 93 | 1015.8 |
| 20260905104640 | 70 | 355 | 2.0 | 3.0 | 0.00 | 0.00 | 0.00 | 93 | 1015.7 |
| 20260905104136 | 70 | 338 | 2.0 | 2.0 | 0.00 | 0.00 | 0.00 | 93 | 1015.3 |
| 20260905103631 | 71 | 50 | 1.0 | 1.0 | 0.00 | 0.00 | 0.00 | 93 | 1015.2 |
| 20260905103127 | 70 | 25 | 0.0 | 1.0 | 0.00 | 0.00 | 0.00 | 93 | 1015.2 |
| 20260905102622 | 70 | 59 | 0.0 | 0.0 | 0.00 | 0.00 | 0.00 | 93 | 1015.0 |
| 20260905102119 | 71 | 59 | 0.0 | 0.0 | 0.00 | 0.00 | 0.00 | 93 | 1015.0 |
| 20260905101617 | 71 | 4 | 0.0 | 1.0 | 0.00 | 0.00 | 0.00 | 93 | 1014.9 |
| 20260905101115 | 71 | 61 | 0.0 | 0.0 | 0.00 | 0.00 | 0.00 | 93 | 1015.1 |
| 20260905100612 | 71 | 58 | 0.0 | 0.0 | 0.00 | 0.00 | 0.00 | 93 | 1015.1 |
| 20260905100107 | 71 | 58 | 0.0 | 0.0 | 0.00 | 0.00 | 0.00 | 93 | 1015.2 |
| 20260905095600 | 71 | 58 | 0.0 | 0.0 | 0.00 | 0.00 | 0.00 | 92 | 1015.1 |
| 20260905095056 | 71 | 62 | 0.0 | 0.0 | 0.00 | 0.00 | 0.00 | 92 | 1015.3 |
| 20260905094551 | 71 | 62 | 0.0 | 0.0 | 0.00 | 0.00 | 0.00 | 92 | 1015.4 |
| 20260905094051 | 71 | 62 | 0.0 | 0.0 | 0.00 | 0.00 | 0.00 | 92 | 1015.4 |
| 20260905093550 | 71 | 62 | 0.0 | 0.0 | 0.00 | 0.00 | 0.00 | 92 | 1015.4 |
| 20260905093047 | 71 | 62 | 0.0 | 0.0 | 0.00 | 0.00 | 0.00 | 92 | 1015.3 |
| 20260905092547 | 71 | 62 | 0.0 | 0.0 | 0.00 | 0.00 | 0.00 | 92 | 1015.3 |
| 20260905092043 | 71 | 62 | 0.0 | 0.0 | 0.00 | 0.00 | 0.00 | 92 | 1015.4 |
| 20260905091541 | 71 | 61 | 0.0 | 0.0 | 0.00 | 0.00 | 0.00 | 92 | 1015.5 |
| 20260905091037 | 71 | 61 | 0.0 | 0.0 | 0.00 | 0.00 | 0.00 | 92 | 1015.5 |
| 20260905090536 | 72 | 62 | 0.0 | 0.0 | 0.00 | 0.00 | 0.00 | 92 | 1015.6 |
| 20260905090032 | 72 | 61 | 0.0 | 0.0 | 0.00 | 0.00 | 0.00 | 92 | 1015.4 |
| 20260905085529 | 72 | 60 | 0.0 | 0.0 | 0.00 | 0.00 | 0.00 | 92 | 1015.8 |
| 20260905085026 | 71 | 50 | 0.0 | 0.0 | 0.00 | 0.00 | 0.00 | 92 | 1015.6 |
| 20260905084526 | 71 | 63 | 0.0 | 0.0 | 0.00 | 0.00 | 0.00 | 92 | 1015.6 |
| 20260905084021 | 72 | 63 | 0.0 | 0.0 | 0.00 | 0.00 | 0.00 | 92 | 1015.7 |
| 20260905083516 | 72 | 63 | 0.0 | 0.0 | 0.00 | 0.00 | 0.00 | 92 | 1015.8 |
| 20260905083012 | 72 | 63 | 0.0 | 0.0 | 0.00 | 0.00 | 0.00 | 91 | 1015.5 |
| 20260905082502 | 72 | 66 | 0.0 | 0.0 | 0.00 | 0.00 | 0.00 | 91 | 1015.8 |